Location: Freiburg+im+Breisgau
(48.0359°N, 7.8195°E)
Time: 11:35:38
(UTC+02:00)

ISS - Visible Passes

Search period start: 25 September 2017 00:00
Search period end: 05 October 2017 00:00
Orbit: 401 x 407 km, 51.6° (Epoch: 25 September)

Date Brightness Start Highest point End Pass type
(mag) Time Alt. Az. Time Alt. Az. Time Alt. Az.
25 Sep -1.6 21:18:31 10° SSW 21:19:29 17° SSW 21:19:29 17° SSW visible
26 Sep -2.5 20:26:45 10° SSW 20:29:20 22° SE 20:29:49 21° SE visible
26 Sep -0.7 22:02:15 10° WSW 22:02:31 12° WSW 22:02:31 12° WSW visible
27 Sep -3.5 21:09:54 10° SW 21:12:39 55° SSW 21:12:39 55° SSW visible
28 Sep -3.3 20:17:43 10° SW 20:20:50 42° SSE 20:22:37 21° E visible
28 Sep -1.3 21:54:03 10° W 21:55:17 21° W 21:55:17 21° W visible
29 Sep -3.8 21:01:33 10° WSW 21:04:50 72° NNW 21:05:07 65° NNE visible
30 Sep -3.9 20:09:08 10° WSW 20:12:24 79° SSE 20:14:52 17° ENE visible
30 Sep -1.5 21:45:53 10° W 21:47:31 25° WNW 21:47:31 25° WNW visible
01 Oct -3.2 20:53:19 10° W 20:56:31 50° NNW 20:57:10 42° NNE visible
02 Oct -3.5 20:00:45 10° W 20:04:01 64° NNW 20:06:45 14° ENE visible
02 Oct -1.6 21:37:38 10° WNW 21:39:24 26° NW 21:39:24 26° NW visible
03 Oct -3.0 20:45:04 10° WNW 20:48:13 42° N 20:48:57 36° NNE visible
04 Oct -3.1 19:52:28 10° W 19:55:39 47° N 19:58:28 13° ENE visible
04 Oct -1.8 21:29:16 10° WNW 21:31:06 28° NW 21:31:06 28° NW visible
